EW5064 Weather Reports


time (UTC)temp
C
wind
direction
speed
KPH
gust
KPH
rain 1hr
cm
rain 24hr
cm
rain mn
cm
humidity
%
barometer
mb
20260506125130 11 160 4.8 12.9 0.00 0.00 0.00 70 1016.6
20260506123930 11 330 1.6 3.2 0.00 0.00 0.00 70 1016.6
20260506122730 11 235 1.6 6.4 0.00 0.00 0.00 69 1016.6
20260506121530 11 209 4.8 9.7 0.00 0.00 0.00 70 1016.5
20260506120345 11 251 3.2 9.7 0.00 0.00 0.00 69 1016.6
20260506115012 11 151 4.8 16.1 0.00 0.00 0.00 69 1016.6
20260506113723 11 83 6.4 9.7 0.00 0.00 0.00 70 1016.2
20260506112518 11 28 4.8 12.9 0.00 0.00 0.00 71 1016.2
20260506111323 11 331 1.6 6.4 0.00 0.00 0.00 70 1016.3
20260506110118 11 15 4.8 12.9 0.00 0.00 0.00 70 1016.0
20260506104918 11 119 4.8 6.4 0.00 0.00 0.00 69 1016.2
20260506103744 12 27 3.2 9.7 0.00 0.00 0.00 66 1016.0
20260506102518 12 311 3.2 9.7 0.00 0.00 0.00 62 1016.0
20260506101324 12 20 3.2 6.4 0.00 0.00 0.00 61 1016.0
20260506100143 12 142 3.2 6.4 0.00 0.00 0.00 62 1016.1
20260506094923 12 23 4.8 12.9 0.00 0.00 0.00 63 1016.1
20260506093724 12 168 3.2 6.4 0.00 0.00 0.00 62 1016.1
20260506092518 13 194 4.8 9.7 0.00 0.00 0.00 58 1015.9
20260506091323 13 48 1.6 6.4 0.00 0.00 0.00 58 1016.0
20260506090118 13 332 1.6 3.2 0.00 0.00 0.00 55 1016.0
20260506084918 13 87 1.6 3.2 0.00 0.00 0.00 53 1015.8
20260506083718 13 65 1.6 6.4 0.00 0.00 0.00 52 1016.0
20260506082522 13 12 0.0 3.2 0.00 0.00 0.00 51 1015.9
20260506081323 13 236 3.2 6.4 0.00 0.00 0.00 50 1016.0
20260506080118 13 346 0.0 3.2 0.00 0.00 0.00 50 1015.7
20260506072522 14 0.0 0.0 0.00 0.00 0.00 47 1015.6
20260506071330 15 0.0 0.0 0.00 0.00 0.00 44 1015.5
20260506070118 15 46 1.6 3.2 0.00 0.00 0.00 41 1015.4
20260506061318 16 0.0 0.0 0.00 0.00 0.00 36 1014.8
20260506060118 16 4 0.0 3.2 0.00 0.00 0.00 35 1014.6
20260506051343 17 303 6.4 9.7 0.00 0.00 0.00 35 1014.3
20260506050119 17 330 4.8 6.4 0.00 0.00 0.00 35 1014.0
20260506044918 17 314 4.8 9.7 0.00 0.00 0.00 36 1014.2
20260506043758 17 302 6.4 9.7 0.00 0.00 0.00 39 1014.0
20260506042522 17 308 1.6 3.2 0.00 0.00 0.00 39 1014.0
20260506041338 17 293 1.6 3.2 0.00 0.00 0.00 43 1013.8
20260506040118 17 251 4.8 6.4 0.00 0.00 0.00 48 1013.7
20260506034919 17 0.0 0.0 0.00 0.00 0.00 49 1013.8
20260506033721 18 293 3.2 3.2 0.00 0.00 0.00 49 1013.3
20260506032604 18 300 8.0 9.7 0.00 0.00 0.00 48 1013.4
20260506031323 18 301 9.7 12.9 0.00 0.00 0.00 47 1013.2
20260506030154 19 313 12.9 16.1 0.00 0.00 0.00 46 1013.0
20260506024923 19 321 9.7 12.9 0.00 0.00 0.00 45 1013.0
20260506023723 20 303 12.9 16.1 0.00 0.00 0.00 44 1013.1
20260506022518 20 296 14.5 19.3 0.00 0.00 0.00 43 1012.7
20260506021325 20 303 11.3 16.1 0.00 0.00 0.00 43 1012.8
20260506020218 20 291 12.9 16.1 0.00 0.00 0.00 42 1012.8
20260506014918 20 306 12.9 19.3 0.00 0.00 0.00 42 1012.7
20260506013718 20 290 12.9 19.3 0.00 0.00 0.00 42 1012.6
20260506012518 21 305 16.1 22.5 0.00 0.00 0.00 42 1012.5
20260506011323 21 305 17.7 22.5 0.00 0.00 0.00 41 1012.5
20260506010138 21 298 12.9 19.3 0.00 0.00 0.00 39 1012.7
20260506004918 21 313 20.9 29.0 0.00 0.00 0.00 38 1012.4
20260506003718 22 10 14.5 22.5 0.00 0.00 0.00 35 1012.2
20260506002518 22 21 9.7 19.3 0.00 0.00 0.00 35 1012.2
20260506001317 22 35 9.7 12.9 0.00 0.00 0.00 34 1012.1
20260506000118 22 15 3.2 6.4 0.00 0.00 0.00 33 1012.1
20260505234923 23 33 12.9 16.1 0.00 0.00 0.00 31 1012.0
20260505233718 23 6 1.6 6.4 0.00 0.00 0.00 31 1012.0
20260505232538 23 60 3.2 9.7 0.00 0.00 0.00 31 1011.9
20260505231323 22 333 9.7 12.9 0.00 0.00 0.00 31 1011.9
20260505230118 23 11 12.9 19.3 0.00 0.00 0.00 31 1012.2
20260505224934 23 315 17.7 29.0 0.00 0.00 0.00 31 1012.2
20260505223724 23 42 14.5 25.7 0.00 0.00 0.00 30 1012.1
20260505222518 23 66 9.7 16.1 0.00 0.00 0.00 30 1012.3
20260505221318 23 46 4.8 9.7 0.00 0.00 0.00 31 1012.2
20260505220123 23 32 8.0 12.9 0.00 0.00 0.00 31 1012.3
20260505214923 23 114 8.0 19.3 0.00 0.00 0.00 31 1012.4
20260505213717 23 43 16.1 22.5 0.00 0.00 0.00 31 1012.6
20260505212523 22 358 9.7 16.1 0.00 0.00 0.00 32 1012.6
20260505211318 22 329 19.3 29.0 0.00 0.00 0.00 32 1012.6
20260505210118 22 352 12.9 22.5 0.00 0.00 0.00 33 1012.6
20260505204919 22 298 14.5 22.5 0.00 0.00 0.00 33 1012.5
20260505203718 22 33 12.9 19.3 0.00 0.00 0.00 33 1012.6
20260505202517 22 356 9.7 16.1 0.00 0.00 0.00 34 1012.7
20260505201318 21 352 8.0 19.3 0.00 0.00 0.00 36 1012.7
20260505200123 21 311 16.1 29.0 0.00 0.00 0.00 36 1012.8
20260505194923 21 349 11.3 19.3 0.00 0.00 0.00 38 1012.9
20260505193723 21 73 12.9 25.7 0.00 0.00 0.00 38 1012.8
20260505192544 21 353 9.7 16.1 0.00 0.00 0.00 39 1012.9
20260505191323 20 343 12.9 19.3 0.00 0.00 0.00 40 1012.9
20260505190143 20 24 4.8 12.9 0.00 0.00 0.00 41 1012.9
20260505184918 20 335 9.7 16.1 0.00 0.00 0.00 41 1013.1
20260505183735 19 337 11.3 16.1 0.00 0.00 0.00 41 1012.9
20260505182524 19 13 9.7 16.1 0.00 0.00 0.00 41 1012.9
20260505181343 18 50 3.2 12.9 0.00 0.00 0.00 42 1012.8
20260505180119 18 14 4.8 9.7 0.00 0.00 0.00 41 1013.0
20260505174918 17 324 3.2 9.7 0.00 0.00 0.00 43 1013.0
20260505173718 17 160 3.2 6.4 0.00 0.00 0.00 44 1012.9
20260505172523 16 332 4.8 6.4 0.00 0.00 0.00 46 1012.9
20260505171328 16 17 6.4 9.7 0.00 0.00 0.00 46 1012.8
20260505170123 15 353 4.8 9.7 0.00 0.00 0.00 48 1012.8
20260505164923 15 358 0.0 3.2 0.00 0.00 0.00 49 1013.0
20260505163717 15 331 6.4 9.7 0.00 0.00 0.00 51 1012.9
20260505162523 14 340 3.2 6.4 0.00 0.00 0.00 51 1013.1
20260505161318 13 4 0.0 3.2 0.00 0.00 0.00 54 1012.7
20260505160118 13 344 0.0 3.2 0.00 0.00 0.00 56 1012.8
20260505152523 11 0.0 0.0 0.00 0.00 0.00 61 1012.8
20260505151318 11 0.0 0.0 0.00 0.00 0.00 61 1012.6
20260505150123 11 330 1.6 6.4 0.00 0.00 0.00 59 1012.6
20260505140117 10 94 3.2 6.4 0.00 0.00 0.00 62 1011.7
20260505130213 10 65 3.2 6.4 0.00 0.00 0.00 61 1011.4